LKW-2

导读

LKW-2(陆地资源勘查卫星二号)是中国自主研发的陆地遥感卫星,于北京时间2017年12月23日由长征二号丁运载火箭在酒泉卫星发射中心成功发射入轨。该卫星主要服务于陆地资源勘查开发、生态环境监测、国土测绘及农业估产等领域,可获取高分辨率地表遥感数据,为国民经济建设、自然资源管理提供重要空间信息支撑,进一步完善了中国陆地遥感卫星观测体系。

基本信息
目录编号:
43080
目录名称:
LKW-2
国际标识:
2017-084A
轨道中心:
EARTH
卫星名称:
LKW-2
卫星全名:
--
卫星状态:
在轨 (已飞行3177 天)
发射日期:
2017-12-23 UTC
国别 :
中国 (CN)
星等 :
--
轨道信息
数据来源 国际轨道数据 AOE轨道数据
星历时间 2026-09-04T12:46:18+0800
4小时前
查看轨道信息
2026-09-03T23:00:00+0800
18小时前
查看轨道信息
半长轴 6862.181km 6862.189km
偏心率 0.0001605 0.0001392
轨道倾角 97.114° 97.114°
近地点辐角 25.914° 27.586°
升交点赤经 283.326° 282.779°
平近点角 334.218° 59.674°
近地点 482.942km 483.096km
远地点 485.146km 485.008km
周期 94.287分钟 94.287分钟
每日圈数 15.27248 15.272452
详细信息
使用方式:
暂无
2D轨道图
3D轨道图
轨道高度分析图
轨道倾角分析图
轨道综合分析图
查看轨道综合分析图
交会数据列表
事件ID 空间交会对象 最接近时刻(TCA) 交会距离 交会风险概率(CRP) 交会风险指数(CRI) 操作
CDM_260829-200004-308006-414222
LKW-2 (43080)
2026-08-29T
20:00:58+0000
2.515 km
极远距离
1.516473E-6 低风险 0.39
CDM_260903-113304-308005-601125
LKW-2 (43080)
2026-09-03T
11:33:17+0000
2.826 km
极远距离
1.411678E-6 低风险 0.38
CDM_260830-180104-308005-689223
LKW-2 (43080)
2026-08-30T
18:01:52+0000
2.616 km
极远距离
1.397338E-6 低风险 0.38
CDM_260903-083004-308005-965322
LKW-2 (43080)
2026-09-03T
08:30:04+0000
2.495 km
极远距离
1.377726E-6 低风险 0.38
CDM_260905-091404-308005-918221
LKW-2 (43080)
2026-09-05T
09:14:42+0000
2.904 km
极远距离
1.305951E-6 低风险 0.37
CDM_260904-142304-308005-486821
LKW-2 (43080)
2026-09-04T
14:23:42+0000
2.906 km
极远距离
1.201857E-6 低风险 0.37
CDM_260901-105304-308005-812824
LKW-2 (43080)
2026-09-01T
10:53:47+0000
2.832 km
极远距离
1.125526E-6 低风险 0.36
CDM_260905-060404-308006-711221
LKW-2 (43080)
2026-09-05T
06:04:35+0000
2.889 km
极远距离
1.035622E-6 低风险 0.35